User: anonymous   Login
Location: Caltech
(34.1382°N, 118.1253°W)
Time: 19:49:52
(UTC-08:00)
Language:

Cosmos 2219 Rocket - Orbit

View from above orbital plane
View from above orbital plane
View from above satellite
View from above satellite

Ground track
Ground track

The orbit data is extracted from the following two-line orbital elements,

1 22220U 92076B   16343.87482762 -.00000078  00000-0 -15214-4 0  9997
2 22220  71.0008  99.8442 0013944 212.2710 295.5470 14.16409607243827
Epoch (UTC): 08 December 2016 20:59:45
Eccentricity: 0.0013944
inclination: 71.0008°
perigee height: 827 km
apogee height: 847 km
right ascension of ascending node: 99.8442°
argument of perigee: 212.2710°
revolutions per day: 14.16409607
mean anomaly at epoch: 295.5470°
orbit number at epoch: 24382

The dashed part of the orbit path shows where the satellite is in the earth's shadow,  

DLR